Hourly Data Report for October 17, 2016

All times are specified in Local Standard Time (LST). Add 1 hour to adjust for Daylight Saving Time where and when it is observed.

CORAL HARBOUR A
NUNAVUT

64°11'36.000" N
83°21'34.000" W
62.20 m
2301002
71915
YZS

Download Data

Hourly Data (October 2016)
Hourly Data Report for October 17, 2016
Temp Definition
°C
Dew Point Temp Definition
°C
Rel Hum Definition
%
Wind Dir Definition
10's deg

Wind Spd Definition
km/h
Visibility Definition
km
Stn Press Definition
kPa
Hmdx Definition


Wind Chill Definition


Weather Definition


TIME
00:00 Legend Double Dagger -3.8 -6.0 85 24 13 19.3 101.17   -9 Snow
01:00 Legend Double Dagger -3.4 -4.7 91 24 27 12.9 101.16   -11 Snow
02:00 Legend Double Dagger -2.9 -3.5 96 23 27 1.2 101.16   -10 Snow
03:00 Legend Double Dagger -3.3 -4.0 95 24 19 0.4 101.17   -9 Moderate Snow
04:00 Legend Double Dagger -2.4 -3.0 96 23 19 3.2 101.17   -8 Snow
05:00 Legend Double Dagger -3.1 -3.7 96 23 17 12.9 101.16   -9 Snow
06:00 Legend Double Dagger -2.7 -3.1 97 24 17 9.7 101.15   -8 Snow
07:00 Legend Double Dagger -3.3 -3.9 96 23 14 6.4 101.16   -8 Snow
08:00 Legend Double Dagger -2.7 -3.4 95 24 18 19.3 101.17   -8 Snow
09:00 Legend Double Dagger -3.1 -4.4 91 24 19 19.3 101.19   -9 Snow
10:00 Legend Double Dagger -5.0 -6.3 91 26 8 19.3 101.22   -9 Snow
11:00 Legend Double Dagger -6.4 -8.2 87 33 15 19.3 101.25   -12 Snow
12:00 Legend Double Dagger -6.3 -8.3 86 36 20 24.1 101.28   -13 Snow
13:00 Legend Double Dagger -5.8 -7.8 86 34 17 24.1 101.35   -12 Snow
14:00 Legend Double Dagger -6.2 -7.9 88 32 12 24.1 101.42   -11 Snow
15:00 Legend Double Dagger -6.4 -7.9 89 34 13 24.1 101.45   -12 Snow
16:00 Legend Double Dagger -6.6 -8.1 89 35 5 24.1 101.47   -9 Snow
17:00 Legend Double Dagger -7.4 -9.2 87 35 14 24.1 101.51   -13 LegendNANA
18:00 Legend Double Dagger -10.4 -12.3 86 33 12 24.1 101.55   -16 LegendNANA
19:00 Legend Double Dagger -12.4 -14.3 86 33 18 24.1 101.58   -20 Mostly Cloudy
20:00 Legend Double Dagger -11.3 -13.2 86 35 16 24.1 101.60   -19 LegendNANA
21:00 Legend Double Dagger -10.8 -12.7 86 36 17 24.1 101.62   -18 LegendNANA
22:00 Legend Double Dagger -11.6 -13.5 86 1 18 24.1 101.63   -19 Mostly Cloudy
23:00 Legend Double Dagger -11.5 -13.3 87 2 18 24.1 101.64   -19 LegendNANA

Notes on Data Quality.

Legend

  • E = Estimated
  • M = Missing
  • NA = Not Available
  • ‡ = Partner data that is not subject to review by the National Climate Archives
Date modified: